This is the latest recevied weather packets stored in our database for station/object EA5DFV. If no packets are shown the sender has not sent any weather packets the latest 10 day(s).
| Time | Temp. | Humidity | Pressure | Rain* | Wind** | Luminosity | Snow |
|---|---|---|---|---|---|---|---|
| 1777917212 | 20.56° C | 77% | 1009.2 hPa | 0 mm | - | 46 W/m² | - |
| 1777916902 | 20.56° C | 77% | 1009.1 hPa | 0 mm | - | 58 W/m² | - |
| 1777916314 | 20.56° C | 77% | 1009.2 hPa | 0 mm | - | 51 W/m² | - |
| 1777916007 | 20.56° C | 77% | 1009.1 hPa | 0 mm | - | 60 W/m² | - |
| 1777915718 | 21.11° C | 76% | 1009.2 hPa | 0 mm | - | 42 W/m² | - |
| 1777915408 | 21.11° C | 76% | 1009.1 hPa | 0 mm | - | 39 W/m² | - |
| 1777915102 | 21.67° C | 75% | 1009.2 hPa | 0 mm | - | 260 W/m² | - |
| 1777914813 | 21.67° C | 75% | 1009.2 hPa | 0 mm | - | 172 W/m² | - |
| 1777914503 | 22.22° C | 75% | 1009.3 hPa | 0 mm | - | 294 W/m² | - |
| 1777914217 | 21.67° C | 74% | 1009.4 hPa | 0 mm | - | 304 W/m² | - |
| 1777913908 | 22.22° C | 74% | 1009.4 hPa | 0 mm | - | 315 W/m² | - |
| 1777913621 | 22.22° C | 74% | 1009.5 hPa | 0 mm | - | 330 W/m² | - |
| 1777913311 | 22.22° C | 74% | 1009.6 hPa | 0 mm | - | 338 W/m² | - |
| 1777913005 | 22.22° C | 75% | 1009.7 hPa | 0 mm | - | 359 W/m² | - |
| 1777912715 | 22.22° C | 74% | 1009.8 hPa | 0 mm | - | 383 W/m² | - |
| 1777912408 | 22.22° C | 75% | 1009.9 hPa | 0 mm | - | 422 W/m² | - |
| 1777912119 | 22.22° C | 76% | 1010 hPa | 0 mm | - | 418 W/m² | - |
| 1777911814 | 21.67° C | 79% | 1010 hPa | 0 mm | - | 438 W/m² | - |
| 1777911507 | 21.11° C | 79% | 1009.9 hPa | 0 mm | - | 506 W/m² | - |
| 1777911197 | 20.56° C | 81% | 1010 hPa | 0 mm | - | 515 W/m² | - |
| 1777910907 | 20.56° C | 80% | 1010 hPa | 0 mm | - | 279 W/m² | - |
| 1777910611 | 20.56° C | 80% | 1010 hPa | 0 mm | - | 216 W/m² | - |
| 1777910304 | 20° C | 80% | 1010 hPa | 0 mm | - | 218 W/m² | - |
| 1777910015 | 20.56° C | 82% | 1010 hPa | 0 mm | - | 209 W/m² | - |
| 1777909706 | 20° C | 81% | 1009.9 hPa | 0 mm | - | 151 W/m² | - |
* Rain latest hour (hover to see other rain measurements)
** Current wind speed in m/s (hover to see current wind gust speed)